Zurück zum Katalog

ICEYE-X78

AktivWissenschaftSSO
NORAD 68995·PAYLOAD·🇸🇬 Singapore

Gestartet May 3, 2026 von Vandenberg Space Force Base

Loading…

Nächste Überflüge (nächste 24 Stunden)

TLE

AktuellSource: Space-Track

Epoche: Sep 14, 2026, 03:33 UTC

1 68995U 26100R   26257.14846616  .00000595  00000-0  64330-4 0  9993
2 68995  97.7240 152.9022 0002451 154.5766 205.5574 14.91895719 19962

Verfolge ICEYE-X78 in Echtzeit mit AllMySat

Download on the App Store